| time (UTC) | temp F | wind direction | speed MPH | gust MPH | rain 1hr in | rain 24hr in | rain mn in | humidity % | barometer mb |
| 20260502164244 | 57 | 63 | 2.0 | 6.0 | 0.00 | 0.00 | 0.00 | 47 | 1017.9 |
| 20260502163631 | 56 | 201 | 2.0 | 6.0 | 0.00 | 0.00 | 0.00 | 47 | 1017.9 |
| 20260502163053 | 56 | 134 | 1.0 | 5.0 | 0.00 | 0.00 | 0.00 | 45 | 1018.2 |
| 20260502162442 | 57 | 162 | 1.0 | 7.0 | 0.00 | 0.00 | 0.00 | 47 | 1017.9 |
| 20260502161816 | 57 | 175 | 2.0 | 6.0 | 0.00 | 0.00 | 0.00 | 44 | 1018.2 |
| 20260502161221 | 58 | 153 | 3.0 | 4.0 | 0.00 | 0.00 | 0.00 | 43 | 1018.2 |
| 20260502160623 | 58 | 112 | 2.0 | 5.0 | 0.00 | 0.00 | 0.00 | 47 | 1018.2 |
| 20260502151833 | 57 | 148 | 3.0 | 8.0 | 0.00 | 0.00 | 0.00 | 45 | 1018.6 |
| 20260502151241 | 57 | 107 | 2.0 | 8.0 | 0.00 | 0.00 | 0.00 | 51 | 1018.6 |
| 20260502150650 | 57 | 151 | 3.0 | 6.0 | 0.00 | 0.00 | 0.00 | 47 | 1018.6 |
| 20260502130631 | 43 | 159 | 0.0 | 0.0 | 0.00 | 0.00 | 0.00 | 95 | 1018.9 |
| 20260502123635 | 39 | 169 | 1.0 | 3.0 | 0.00 | 0.00 | 0.00 | 95 | 1018.9 |
| 20260502122440 | 37 | 71 | 0.0 | 1.0 | 0.00 | 0.00 | 0.00 | 95 | 1018.6 |
| 20260502121222 | 36 | 231 | 0.0 | 0.0 | 0.00 | 0.00 | 0.00 | 94 | 1018.9 |
| 20260502120644 | 36 | 231 | 0.0 | 0.0 | 0.00 | 0.00 | 0.00 | 94 | 1018.9 |
| 20260502115451 | 35 | 245 | 0.0 | 0.0 | 0.00 | 0.00 | 0.00 | 94 | 1018.9 |
| 20260502114813 | 35 | 248 | 0.0 | 0.0 | 0.00 | 0.00 | 0.00 | 94 | 1018.6 |
| 20260502114232 | 35 | 164 | 0.0 | 0.0 | 0.00 | 0.00 | 0.00 | 93 | 1018.6 |
| 20260502113611 | 35 | 164 | 0.0 | 0.0 | 0.00 | 0.00 | 0.00 | 93 | 1018.9 |
| 20260502113039 | 35 | 164 | 0.0 | 0.0 | 0.00 | 0.00 | 0.00 | 93 | 1018.6 |
| 20260502112437 | 35 | 209 | 0.0 | 0.0 | 0.00 | 0.00 | 0.00 | 93 | 1018.6 |
| 20260502111828 | 35 | 209 | 0.0 | 0.0 | 0.00 | 0.00 | 0.00 | 93 | 1018.6 |
| 20260502111226 | 35 | 209 | 0.0 | 0.0 | 0.00 | 0.00 | 0.00 | 93 | 1018.6 |
| 20260502110017 | 35 | 239 | 0.0 | 0.0 | 0.00 | 0.00 | 0.00 | 93 | 1018.6 |
| 20260502105418 | 35 | 239 | 0.0 | 0.0 | 0.00 | 0.00 | 0.00 | 93 | 1018.2 |
| 20260502104829 | 35 | 239 | 0.0 | 0.0 | 0.00 | 0.00 | 0.00 | 93 | 1018.2 |
| 20260502104217 | 35 | 239 | 0.0 | 0.0 | 0.00 | 0.00 | 0.00 | 93 | 1018.2 |
| 20260502103635 | 36 | 239 | 0.0 | 0.0 | 0.00 | 0.00 | 0.00 | 93 | 1018.2 |
| 20260502103043 | 36 | 239 | 0.0 | 0.0 | 0.00 | 0.00 | 0.00 | 93 | 1018.6 |
| 20260502102419 | 36 | 239 | 0.0 | 0.0 | 0.00 | 0.00 | 0.00 | 93 | 1018.9 |
| 20260502101846 | 36 | 239 | 0.0 | 0.0 | 0.00 | 0.00 | 0.00 | 93 | 1018.6 |
| 20260502100630 | 36 | 239 | 0.0 | 0.0 | 0.00 | 0.00 | 0.00 | 93 | 1018.6 |
| 20260502091252 | 36 | 239 | 0.0 | 0.0 | 0.00 | 0.00 | 0.00 | 92 | 1018.6 |
| 20260502090624 | 36 | 239 | 0.0 | 0.0 | 0.00 | 0.00 | 0.00 | 92 | 1018.9 |
| 20260502071224 | 37 | 239 | 0.0 | 0.0 | 0.00 | 0.00 | 0.00 | 90 | 1018.2 |
| 20260502070652 | 37 | 239 | 0.0 | 0.0 | 0.00 | 0.00 | 0.00 | 90 | 1018.2 |
| 20260502070035 | 37 | 239 | 0.0 | 0.0 | 0.00 | 0.00 | 0.00 | 90 | 1018.2 |
| 20260502063651 | 38 | 239 | 0.0 | 0.0 | 0.00 | 0.00 | 0.00 | 90 | 1018.2 |
| 20260502063042 | 38 | 239 | 0.0 | 0.0 | 0.00 | 0.00 | 0.00 | 89 | 1018.6 |
| 20260502061814 | 38 | 239 | 0.0 | 0.0 | 0.00 | 0.00 | 0.00 | 89 | 1018.9 |
| 20260502061249 | 39 | 239 | 0.0 | 0.0 | 0.00 | 0.00 | 0.00 | 88 | 1018.9 |
| 20260502060622 | 39 | 239 | 0.0 | 0.0 | 0.00 | 0.00 | 0.00 | 88 | 1018.9 |
| 20260502060047 | 39 | 239 | 0.0 | 0.0 | 0.00 | 0.00 | 0.00 | 88 | 1018.9 |
| 20260502055448 | 39 | 239 | 0.0 | 0.0 | 0.00 | 0.00 | 0.00 | 88 | 1018.9 |
| 20260502054820 | 39 | 239 | 0.0 | 0.0 | 0.00 | 0.00 | 0.00 | 88 | 1018.9 |
| 20260502054251 | 40 | 239 | 0.0 | 0.0 | 0.00 | 0.00 | 0.00 | 88 | 1018.9 |
| 20260502053021 | 40 | 239 | 0.0 | 0.0 | 0.00 | 0.00 | 0.00 | 88 | 1018.9 |
| 20260502052415 | 40 | 239 | 0.0 | 1.0 | 0.00 | 0.00 | 0.00 | 87 | 1018.9 |
| 20260502051826 | 40 | 239 | 0.0 | 1.0 | 0.00 | 0.00 | 0.00 | 87 | 1018.9 |
| 20260502051220 | 41 | 239 | 0.0 | 1.0 | 0.00 | 0.00 | 0.00 | 87 | 1018.9 |
| 20260502050628 | 41 | 239 | 0.0 | 0.0 | 0.00 | 0.00 | 0.00 | 86 | 1018.9 |
| 20260502050039 | 41 | 239 | 0.0 | 0.0 | 0.00 | 0.00 | 0.00 | 86 | 1018.9 |
| 20260502045433 | 42 | 239 | 0.0 | 0.0 | 0.00 | 0.00 | 0.00 | 84 | 1019.3 |
| 20260502044838 | 42 | 239 | 0.0 | 0.0 | 0.00 | 0.00 | 0.00 | 84 | 1018.9 |
| 20260502043629 | 42 | 239 | 0.0 | 0.0 | 0.00 | 0.00 | 0.00 | 84 | 1019.3 |
| 20260502043043 | 42 | 239 | 0.0 | 0.0 | 0.00 | 0.00 | 0.00 | 84 | 1018.9 |
| 20260502042435 | 43 | 239 | 0.0 | 0.0 | 0.00 | 0.00 | 0.00 | 83 | 1018.9 |
| 20260502041810 | 43 | 239 | 0.0 | 0.0 | 0.00 | 0.00 | 0.00 | 83 | 1018.9 |
| 20260502041217 | 43 | 239 | 0.0 | 0.0 | 0.00 | 0.00 | 0.00 | 83 | 1018.9 |
| 20260502040649 | 44 | 239 | 0.0 | 0.0 | 0.00 | 0.00 | 0.00 | 83 | 1018.9 |
| 20260502040019 | 44 | 239 | 0.0 | 0.0 | 0.00 | 0.00 | 0.01 | 82 | 1018.9 |
| 20260502035442 | 44 | 239 | 0.0 | 0.0 | 0.00 | 0.00 | 0.01 | 82 | 1018.9 |
| 20260502034810 | 44 | 239 | 0.0 | 0.0 | 0.00 | 0.00 | 0.01 | 82 | 1018.6 |
| 20260502034246 | 45 | 239 | 0.0 | 0.0 | 0.00 | 0.00 | 0.01 | 82 | 1018.9 |
| 20260502033649 | 45 | 239 | 0.0 | 0.0 | 0.00 | 0.00 | 0.01 | 81 | 1018.9 |
| 20260502033012 | 46 | 239 | 0.0 | 0.0 | 0.00 | 0.00 | 0.01 | 80 | 1018.9 |
| 20260502032426 | 46 | 239 | 0.0 | 0.0 | 0.00 | 0.00 | 0.01 | 79 | 1018.9 |
| 20260502031841 | 46 | 239 | 0.0 | 0.0 | 0.00 | 0.00 | 0.01 | 79 | 1018.9 |
| 20260502031213 | 46 | 239 | 0.0 | 0.0 | 0.00 | 0.00 | 0.01 | 79 | 1018.9 |
| 20260502030616 | 46 | 239 | 0.0 | 0.0 | 0.00 | 0.00 | 0.01 | 79 | 1018.9 |
| 20260502030046 | 47 | 239 | 0.0 | 0.0 | 0.00 | 0.00 | 0.01 | 78 | 1018.9 |
| 20260502025414 | 48 | 239 | 0.0 | 0.0 | 0.00 | 0.00 | 0.01 | 77 | 1018.9 |
| 20260502024827 | 48 | 239 | 0.0 | 0.0 | 0.00 | 0.00 | 0.01 | 75 | 1018.9 |
| 20260502024219 | 48 | 239 | 0.0 | 0.0 | 0.00 | 0.00 | 0.01 | 75 | 1018.9 |
| 20260502023624 | 48 | 239 | 0.0 | 0.0 | 0.00 | 0.00 | 0.01 | 75 | 1018.9 |
| 20260502023047 | 48 | 239 | 0.0 | 0.0 | 0.00 | 0.00 | 0.01 | 74 | 1018.6 |
| 20260502022427 | 49 | 239 | 0.0 | 0.0 | 0.00 | 0.00 | 0.01 | 73 | 1018.6 |
| 20260502021812 | 49 | 239 | 0.0 | 1.0 | 0.00 | 0.00 | 0.01 | 72 | 1018.2 |
| 20260502021234 | 49 | 239 | 0.0 | 1.0 | 0.00 | 0.00 | 0.01 | 71 | 1018.2 |
| 20260502020614 | 49 | 239 | 0.0 | 1.0 | 0.00 | 0.00 | 0.01 | 72 | 1017.9 |
| 20260502020036 | 50 | 239 | 0.0 | 1.0 | 0.00 | 0.00 | 0.01 | 72 | 1017.9 |
| 20260502015431 | 50 | 236 | 0.0 | 1.0 | 0.00 | 0.00 | 0.01 | 73 | 1017.9 |
| 20260502014842 | 50 | 206 | 0.0 | 3.0 | 0.00 | 0.00 | 0.01 | 74 | 1017.6 |
| 20260502014227 | 50 | 155 | 1.0 | 2.0 | 0.00 | 0.00 | 0.01 | 73 | 1017.6 |
| 20260502013620 | 51 | 231 | 0.0 | 3.0 | 0.00 | 0.00 | 0.01 | 71 | 1017.6 |
| 20260502013036 | 51 | 194 | 0.0 | 1.0 | 0.00 | 0.00 | 0.01 | 73 | 1017.6 |
| 20260502012450 | 51 | 168 | 0.0 | 6.0 | 0.00 | 0.00 | 0.01 | 70 | 1017.2 |
| 20260502011841 | 51 | 112 | 2.0 | 2.0 | 0.00 | 0.00 | 0.01 | 72 | 1017.2 |
| 20260502011224 | 51 | 161 | 2.0 | 2.0 | 0.00 | 0.00 | 0.01 | 71 | 1017.2 |
| 20260502010625 | 51 | 111 | 0.0 | 4.0 | 0.00 | 0.00 | 0.01 | 70 | 1016.9 |
| 20260502010053 | 52 | 170 | 1.0 | 4.0 | 0.00 | 0.00 | 0.01 | 73 | 1016.9 |
| 20260502005446 | 52 | 215 | 3.0 | 3.0 | 0.00 | 0.00 | 0.01 | 74 | 1016.5 |
| 20260502004843 | 52 | 187 | 1.0 | 4.0 | 0.00 | 0.00 | 0.01 | 75 | 1016.5 |
| 20260502004227 | 52 | 141 | 1.0 | 1.0 | 0.00 | 0.00 | 0.01 | 79 | 1016.2 |
| 20260502003649 | 52 | 92 | 0.0 | 0.0 | 0.00 | 0.00 | 0.01 | 80 | 1016.2 |
| 20260502002449 | 52 | 324 | 0.0 | 2.0 | 0.00 | 0.00 | 0.01 | 82 | 1016.2 |
| 20260502001832 | 52 | 117 | 2.0 | 2.0 | 0.00 | 0.00 | 0.01 | 83 | 1015.9 |
| 20260502001246 | 52 | 188 | 0.0 | 1.0 | 0.00 | 0.00 | 0.01 | 83 | 1015.9 |
| 20260502000031 | 52 | 94 | 0.0 | 0.0 | 0.00 | 0.00 | 0.01 | 82 | 1015.9 |
| 20260501235453 | 53 | 94 | 0.0 | 0.0 | 0.00 | 0.00 | 0.01 | 83 | 1015.5 |
| 20260501234840 | 53 | 94 | 0.0 | 0.0 | 0.00 | 0.00 | 0.01 | 83 | 1015.5 |
| 20260501234253 | 53 | 94 | 0.0 | 1.0 | 0.00 | 0.00 | 0.01 | 83 | 1015.2 |
| 20260501233644 | 53 | 94 | 1.0 | 1.0 | 0.00 | 0.00 | 0.01 | 83 | 1015.2 |
| 20260501233024 | 53 | 94 | 0.0 | 0.0 | 0.00 | 0.00 | 0.01 | 82 | 1014.9 |
| 20260501232442 | 53 | 94 | 0.0 | 0.0 | 0.00 | 0.00 | 0.01 | 81 | 1014.9 |
| 20260501231817 | 53 | 94 | 0.0 | 0.0 | 0.00 | 0.00 | 0.01 | 80 | 1015.2 |
| 20260501231255 | 53 | 94 | 0.0 | 0.0 | 0.00 | 0.00 | 0.01 | 81 | 1014.9 |
| 20260501230650 | 54 | 94 | 0.0 | 0.0 | 0.00 | 0.00 | 0.01 | 81 | 1014.9 |
| 20260501230036 | 54 | 94 | 0.0 | 0.0 | 0.00 | 0.00 | 0.01 | 80 | 1014.9 |
| 20260501225415 | 54 | 94 | 0.0 | 0.0 | 0.00 | 0.00 | 0.01 | 80 | 1014.9 |
| 20260501224827 | 54 | 94 | 0.0 | 0.0 | 0.00 | 0.00 | 0.01 | 78 | 1014.9 |
| 20260501224233 | 54 | 94 | 0.0 | 0.0 | 0.00 | 0.00 | 0.01 | 79 | 1014.9 |
| 20260501223616 | 54 | 94 | 0.0 | 0.0 | 0.00 | 0.00 | 0.01 | 78 | 1014.9 |
| 20260501223053 | 55 | 94 | 0.0 | 1.0 | 0.00 | 0.00 | 0.01 | 78 | 1014.9 |
| 20260501222451 | 55 | 94 | 0.0 | 1.0 | 0.00 | 0.00 | 0.01 | 76 | 1014.9 |
| 20260501221839 | 55 | 94 | 0.0 | 2.0 | 0.00 | 0.00 | 0.01 | 74 | 1014.9 |
| 20260501221246 | 56 | 140 | 0.0 | 2.0 | 0.00 | 0.00 | 0.01 | 71 | 1014.5 |
| 20260501220645 | 56 | 211 | 1.0 | 3.0 | 0.00 | 0.00 | 0.01 | 68 | 1014.9 |
| 20260501220021 | 56 | 144 | 2.0 | 7.0 | 0.00 | 0.00 | 0.01 | 66 | 1014.9 |
| 20260501215415 | 57 | 156 | 1.0 | 3.0 | 0.00 | 0.00 | 0.01 | 67 | 1014.9 |
| 20260501214238 | 57 | 163 | 1.0 | 4.0 | 0.00 | 0.00 | 0.01 | 65 | 1014.5 |
| 20260501213041 | 58 | 144 | 2.0 | 9.0 | 0.00 | 0.00 | 0.01 | 64 | 1014.2 |
| 20260501211829 | 59 | 257 | 1.0 | 6.0 | 0.00 | 0.00 | 0.01 | 71 | 1014.2 |
| 20260501211210 | 58 | 139 | 1.0 | 4.0 | 0.00 | 0.00 | 0.01 | 72 | 1014.2 |
| 20260501210617 | 58 | 74 | 3.0 | 10.0 | 0.00 | 0.00 | 0.01 | 72 | 1014.2 |
| 20260501210030 | 58 | 57 | 0.0 | 6.0 | 0.00 | 0.00 | 0.01 | 72 | 1014.2 |
| 20260501205421 | 59 | 196 | 2.0 | 4.0 | 0.00 | 0.00 | 0.01 | 73 | 1013.8 |
| 20260501204849 | 59 | 157 | 1.0 | 5.0 | 0.00 | 0.00 | 0.01 | 73 | 1013.8 |
| 20260501203622 | 59 | 86 | 0.0 | 3.0 | 0.00 | 0.00 | 0.01 | 72 | 1013.8 |
| 20260501202444 | 60 | 219 | 1.0 | 2.0 | 0.00 | 0.00 | 0.01 | 70 | 1013.8 |
| 20260501201809 | 60 | 99 | 2.0 | 3.0 | 0.00 | 0.00 | 0.01 | 70 | 1013.8 |
| 20260501201239 | 61 | 77 | 1.0 | 2.0 | 0.00 | 0.00 | 0.01 | 66 | 1013.5 |
| 20260501200048 | 61 | 156 | 2.0 | 6.0 | 0.00 | 0.00 | 0.00 | 60 | 1013.5 |
| 20260501194853 | 62 | 248 | 1.0 | 3.0 | 0.00 | 0.00 | 0.00 | 62 | 1013.2 |
| 20260501194230 | 62 | 126 | 1.0 | 3.0 | 0.00 | 0.00 | 0.00 | 56 | 1013.2 |
| 20260501193314 | 63 | 249 | 2.0 | 5.0 | 0.00 | 0.00 | 0.00 | 57 | 1013.2 |
| 20260501192719 | 63 | 145 | 3.0 | 3.0 | 0.00 | 0.00 | 0.00 | 54 | 1013.2 |
| 20260501192139 | 64 | 142 | 3.0 | 5.0 | 0.00 | 0.00 | 0.00 | 52 | 1013.2 |
| 20260501191517 | 65 | 141 | 1.0 | 6.0 | 0.00 | 0.00 | 0.00 | 44 | 1013.2 |
| 20260501190942 | 66 | 200 | 2.0 | 7.0 | 0.00 | 0.00 | 0.00 | 43 | 1013.2 |
| 20260501190351 | 66 | 159 | 1.0 | 4.0 | 0.00 | 0.00 | 0.00 | 47 | 1012.8 |
| 20260501185727 | 66 | 193 | 2.0 | 3.0 | 0.00 | 0.00 | 0.00 | 47 | 1012.8 |
| 20260501185114 | 67 | 173 | 0.0 | 5.0 | 0.00 | 0.00 | 0.00 | 44 | 1012.8 |
| 20260501184538 | 68 | 150 | 5.0 | 6.0 | 0.00 | 0.00 | 0.00 | 45 | 1012.8 |
| 20260501183947 | 68 | 140 | 1.0 | 5.0 | 0.00 | 0.00 | 0.00 | 42 | 1013.2 |
| 20260501183330 | 68 | 98 | 1.0 | 7.0 | 0.00 | 0.00 | 0.00 | 43 | 1012.8 |
| 20260501182719 | 68 | 159 | 2.0 | 7.0 | 0.00 | 0.00 | 0.00 | 42 | 1012.8 |
| 20260501181520 | 66 | 175 | 0.0 | 5.0 | 0.00 | 0.00 | 0.00 | 47 | 1013.2 |
| 20260501180926 | 66 | 160 | 2.0 | 8.0 | 0.00 | 0.00 | 0.00 | 47 | 1013.2 |
| 20260501180335 | 66 | 211 | 4.0 | 4.0 | 0.00 | 0.00 | 0.00 | 44 | 1013.2 |
| 20260501175130 | 65 | 191 | 4.0 | 5.0 | 0.00 | 0.00 | 0.00 | 46 | 1013.5 |
| 20260501174538 | 65 | 244 | 3.0 | 6.0 | 0.00 | 0.00 | 0.00 | 47 | 1013.5 |
| 20260501173944 | 66 | 161 | 4.0 | 4.0 | 0.00 | 0.00 | 0.00 | 49 | 1013.5 |
| 20260501172714 | 66 | 142 | 4.0 | 4.0 | 0.00 | 0.00 | 0.00 | 48 | 1013.8 |
| 20260501172116 | 65 | 214 | 1.0 | 4.0 | 0.00 | 0.00 | 0.00 | 49 | 1013.8 |